EN

Hourly Weather Kyyanka

Today, 25 July, Sunday

Time Temperature Precipitation Wind Pressure Humidity
00:00 +20°C° 0 mm 1 mps 743 mmHg 68%
01:00 +20°C° 0 mm 1 mps 743 mmHg 69%
02:00 +20°C° 0 mm 1 mps 743 mmHg 70%
03:00 +20°C° 0 mm 1 mps 743 mmHg 71%
04:00 +19°C° 0 mm 1 mps 743 mmHg 72%
05:00 +19°C° 0 mm 1 mps 743 mmHg 73%
06:00 +20°C° 0 mm 1 mps 743 mmHg 71%
07:00 +21°C° 0 mm 1 mps 744 mmHg 69%
08:00 +22°C° 0 mm 1 mps 744 mmHg 67%
09:00 +23°C° 0 mm 1 mps 744 mmHg 64%
10:00 +24°C° 0 mm 1 mps 744 mmHg 60%
11:00 +25°C° 0 mm 1 mps 745 mmHg 56%
12:00 +26°C° 0 mm 2 mps 744 mmHg 52%
13:00 +27°C° 0 mm 2 mps 744 mmHg 49%
14:00 +28°C° 0 mm 2 mps 744 mmHg 45%
15:00 +27°C° 0 mm 2 mps 744 mmHg 48%
16:00 +27°C° 0 mm 3 mps 744 mmHg 50%
17:00 +26°C° 0 mm 3 mps 744 mmHg 53%
18:00 +25°C° 0 mm 3 mps 744 mmHg 58%
19:00 +23°C° 0 mm 2 mps 744 mmHg 63%
20:00 +21°C° 0 mm 2 mps 744 mmHg 67%
21:00 +20°C° 0 mm 2 mps 744 mmHg 69%
22:00 +19°C° 0 mm 3 mps 744 mmHg 72%
23:00 +19°C° 0 mm 3 mps 744 mmHg 74%

Tomorrow, 26 July, Monday

Time Temperature Precipitation Wind Pressure Humidity
00:00 +18°C° 0 mm 3 mps 744 mmHg 74%
01:00 +18°C° 0 mm 3 mps 744 mmHg 75%
02:00 +17°C° 0 mm 3 mps 744 mmHg 75%
03:00 +18°C° 0 mm 3 mps 744 mmHg 73%
04:00 +18°C° 0 mm 3 mps 744 mmHg 70%
05:00 +18°C° 0 mm 3 mps 744 mmHg 67%
06:00 +19°C° 0 mm 3 mps 744 mmHg 65%
07:00 +21°C° 0 mm 3 mps 745 mmHg 63%
08:00 +22°C° 0 mm 4 mps 745 mmHg 61%
09:00 +25°C° 0 mm 4 mps 745 mmHg 56%
10:00 +27°C° 0 mm 4 mps 745 mmHg 51%
11:00 +29°C° 0 mm 5 mps 745 mmHg 46%
12:00 +29°C° 0 mm 5 mps 745 mmHg 46%
13:00 +29°C° 0 mm 5 mps 745 mmHg 45%
14:00 +29°C° 0 mm 5 mps 744 mmHg 45%
15:00 +29°C° 0 mm 4 mps 744 mmHg 47%
16:00 +29°C° 0 mm 4 mps 744 mmHg 49%
17:00 +29°C° 0 mm 3 mps 744 mmHg 51%
18:00 +27°C° 0 mm 3 mps 744 mmHg 55%
19:00 +26°C° 0 mm 3 mps 744 mmHg 60%
20:00 +24°C° 0 mm 3 mps 744 mmHg 64%
21:00 +23°C° 0 mm 4 mps 744 mmHg 65%
22:00 +22°C° 0 mm 4 mps 744 mmHg 65%
23:00 +22°C° 0 mm 4 mps 744 mmHg 66%

Day after tomorrow, 27 July, Tuesday

Time Temperature Precipitation Wind Pressure Humidity
00:00 +21°C° 0 mm 4 mps 744 mmHg 68%
01:00 +20°C° 0 mm 4 mps 744 mmHg 71%
02:00 +20°C° 0 mm 4 mps 744 mmHg 73%
03:00 +19°C° 0 mm 4 mps 743 mmHg 72%
04:00 +19°C° 0 mm 4 mps 743 mmHg 72%
05:00 +19°C° 0 mm 4 mps 743 mmHg 71%
06:00 +21°C° 0 mm 4 mps 743 mmHg 67%
07:00 +23°C° 0 mm 5 mps 743 mmHg 62%
08:00 +25°C° 0 mm 5 mps 743 mmHg 58%
09:00 +27°C° 0 mm 6 mps 743 mmHg 53%
10:00 +29°C° 0 mm 6 mps 743 mmHg 48%
11:00 +30°C° 0 mm 6 mps 743 mmHg 43%
12:00 +32°C° 0 mm 6 mps 743 mmHg 44%
13:00 +32°C° 0 mm 7 mps 742 mmHg 44%
14:00 +33°C° 0 mm 7 mps 742 mmHg 44%
15:00 +32°C° 0 mm 6 mps 742 mmHg 49%
16:00 +30°C° 0 mm 5 mps 742 mmHg 54%
17:00 +29°C° 0 mm 5 mps 742 mmHg 60%
18:00 +27°C° 1.3 mm 4 mps 742 mmHg 67%
19:00 +26°C° 1.3 mm 3 mps 742 mmHg 75%
20:00 +24°C° 1.3 mm 3 mps 742 mmHg 82%
21:00 +22°C° 0.1 mm 3 mps 741 mmHg 84%
22:00 +22°C° 0.1 mm 3 mps 741 mmHg 86%
23:00 +21°C° 0.1 mm 3 mps 741 mmHg 88%

28 July, Wednesday

Time Temperature Precipitation Wind Pressure Humidity
00:00 +21°C° 0.9 mm 3 mps 741 mmHg 90%
01:00 +20°C° 0.9 mm 3 mps 741 mmHg 92%
02:00 +20°C° 0.9 mm 3 mps 741 mmHg 94%
03:00 +20°C° 0.1 mm 3 mps 741 mmHg 95%
04:00 +19°C° 0.1 mm 2 mps 741 mmHg 96%
05:00 +19°C° 0.1 mm 2 mps 741 mmHg 97%
06:00 +20°C° 0.1 mm 2 mps 742 mmHg 91%
07:00 +21°C° 0.1 mm 3 mps 742 mmHg 86%
08:00 +24°C° 0.1 mm 3 mps 742 mmHg 80%
09:00 +25°C° 0 mm 3 mps 742 mmHg 72%
10:00 +26°C° 0 mm 2 mps 742 mmHg 64%
11:00 +28°C° 0 mm 2 mps 742 mmHg 56%
12:00 +29°C° 0 mm 2 mps 742 mmHg 53%
13:00 +30°C° 0 mm 2 mps 742 mmHg 50%
14:00 +30°C° 0 mm 2 mps 742 mmHg 46%
15:00 +30°C° 0 mm 2 mps 742 mmHg 47%
16:00 +30°C° 0 mm 2 mps 742 mmHg 48%
17:00 +30°C° 0 mm 1 mps 741 mmHg 49%
18:00 +28°C° 0 mm 1 mps 741 mmHg 54%
19:00 +27°C° 0 mm 1 mps 741 mmHg 60%
20:00 +25°C° 0 mm 1 mps 741 mmHg 65%
21:00 +24°C° 0 mm 1 mps 741 mmHg 66%
22:00 +24°C° 0 mm 1 mps 741 mmHg 68%
23:00 +23°C° 0 mm 1 mps 741 mmHg 69%

29 July, Thursday

Time Temperature Precipitation Wind Pressure Humidity
00:00 +23°C° 0 mm 1 mps 741 mmHg 71%
01:00 +21°C° 0 mm 2 mps 741 mmHg 74%
02:00 +21°C° 0 mm 2 mps 741 mmHg 76%
03:00 +21°C° 0.2 mm 2 mps 741 mmHg 79%
04:00 +20°C° 0.2 mm 2 mps 740 mmHg 81%
05:00 +21°C° 0.2 mm 1 mps 740 mmHg 84%
06:00 +23°C° 0.2 mm 1 mps 740 mmHg 81%
07:00 +24°C° 0.2 mm 2 mps 740 mmHg 78%
08:00 +25°C° 0.2 mm 2 mps 741 mmHg 75%
09:00 +27°C° 0 mm 2 mps 741 mmHg 69%
10:00 +29°C° 0 mm 2 mps 741 mmHg 63%
11:00 +30°C° 0 mm 2 mps 741 mmHg 57%
12:00 +31°C° 0 mm 2 mps 741 mmHg 53%
13:00 +32°C° 0 mm 2 mps 740 mmHg 50%
14:00 +34°C° 0 mm 2 mps 740 mmHg 46%
15:00 +34°C° 0.1 mm 3 mps 740 mmHg 48%
16:00 +33°C° 0.1 mm 3 mps 740 mmHg 51%
17:00 +31°C° 0.1 mm 3 mps 739 mmHg 53%
18:00 +30°C° 0 mm 3 mps 739 mmHg 57%
19:00 +28°C° 0 mm 3 mps 740 mmHg 62%
20:00 +27°C° 0 mm 3 mps 740 mmHg 66%
21:00 +26°C° 0 mm 3 mps 740 mmHg 69%
22:00 +24°C° 0 mm 3 mps 740 mmHg 72%
23:00 +23°C° 0 mm 2 mps 740 mmHg 75%

30 July, Friday

Time Temperature Precipitation Wind Pressure Humidity
00:00 +21°C° 0 mm 2 mps 740 mmHg 77%
01:00 +21°C° 0 mm 2 mps 740 mmHg 79%
02:00 +20°C° 0 mm 2 mps 740 mmHg 81%
03:00 +20°C° 0 mm 2 mps 740 mmHg 84%
04:00 +20°C° 0 mm 2 mps 740 mmHg 87%
05:00 +19°C° 0 mm 2 mps 741 mmHg 90%
06:00 +21°C° 0 mm 2 mps 741 mmHg 82%
07:00 +24°C° 0 mm 2 mps 741 mmHg 75%
08:00 +26°C° 0 mm 2 mps 741 mmHg 68%
09:00 +28°C° 0 mm 2 mps 741 mmHg 61%
10:00 +29°C° 0 mm 2 mps 741 mmHg 54%
11:00 +31°C° 0 mm 2 mps 741 mmHg 48%
12:00 +31°C° 0 mm 1 mps 741 mmHg 45%
13:00 +32°C° 0 mm 1 mps 741 mmHg 42%
14:00 +33°C° 0 mm 1 mps 740 mmHg 38%
15:00 +33°C° 0 mm 1 mps 740 mmHg 39%
16:00 +33°C° 0 mm 1 mps 740 mmHg 39%
17:00 +33°C° 0 mm 1 mps 740 mmHg 40%
18:00 +31°C° 0 mm 1 mps 740 mmHg 46%
19:00 +29°C° 0 mm 1 mps 739 mmHg 53%
20:00 +26°C° 0 mm 2 mps 739 mmHg 60%
21:00 +26°C° 0 mm 2 mps 739 mmHg 63%
22:00 +25°C° 0 mm 2 mps 739 mmHg 66%
23:00 +24°C° 0 mm 3 mps 739 mmHg 69%
Show more